| time (UTC) | temp C | wind direction | speed KPH | gust KPH | rain 1hr cm | rain 24hr cm | rain mn cm | humidity % | barometer mb |
| 20260831181925 | 30 | 171 | 8.0 | 17.7 | 0.00 | 0.00 | 0.00 | 64 | 1010.8 |
| 20260831181418 | 30 | 221 | 8.0 | 19.3 | 0.00 | 0.00 | 0.00 | 63 | 1010.9 |
| 20260831180912 | 30 | 213 | 8.0 | 19.3 | 0.00 | 0.00 | 0.00 | 64 | 1010.9 |
| 20260831180401 | 30 | 214 | 8.0 | 20.9 | 0.00 | 0.00 | 0.00 | 65 | 1010.9 |
| 20260831175900 | 30 | 128 | 8.0 | 20.9 | 0.00 | 0.00 | 0.00 | 63 | 1011.2 |
| 20260831175356 | 30 | 210 | 6.4 | 19.3 | 0.00 | 0.00 | 0.00 | 65 | 1011.2 |
| 20260831175112 | 29 | 186 | 8.0 | 20.9 | 0.00 | 0.00 | 0.00 | 65 | 1011.2 |
| 20260831174337 | 29 | 181 | 8.0 | 20.9 | 0.00 | 0.00 | 0.00 | 65 | 1011.5 |
| 20260831174326 | 29 | 177 | 6.4 | 19.3 | 0.00 | 0.00 | 0.00 | 66 | 1011.5 |
| 20260831173331 | 28 | 232 | 6.4 | 19.3 | 0.00 | 0.00 | 0.00 | 67 | 1011.5 |
| 20260831172821 | 28 | 229 | 4.8 | 19.3 | 0.00 | 0.00 | 0.00 | 70 | 1011.9 |
| 20260831172320 | 27 | 184 | 4.8 | 12.9 | 0.00 | 0.00 | 0.00 | 72 | 1011.9 |
| 20260831171813 | 27 | 203 | 4.8 | 14.5 | 0.00 | 0.00 | 0.00 | 73 | 1011.9 |
| 20260831171527 | 27 | 131 | 3.2 | 14.5 | 0.00 | 0.00 | 0.00 | 74 | 1012.0 |
| 20260831170801 | 26 | 232 | 3.2 | 12.9 | 0.00 | 0.00 | 0.00 | 75 | 1012.0 |
| 20260831170258 | 26 | 161 | 4.8 | 12.9 | 0.00 | 0.00 | 0.00 | 75 | 1012.0 |
| 20260831165758 | 26 | 173 | 3.2 | 12.9 | 0.00 | 0.00 | 0.00 | 76 | 1012.3 |
| 20260831165256 | 25 | 188 | 3.2 | 11.3 | 0.00 | 0.00 | 0.00 | 78 | 1012.3 |
| 20260831165012 | 25 | 123 | 1.6 | 4.8 | 0.00 | 0.00 | 0.00 | 80 | 1012.3 |
| 20260831164738 | 25 | 116 | 1.6 | 4.8 | 0.00 | 0.00 | 0.00 | 80 | 1012.5 |
| 20260831163754 | 24 | 117 | 1.6 | 4.8 | 0.00 | 0.00 | 0.00 | 80 | 1012.5 |
| 20260831163253 | 24 | 109 | 1.6 | 4.8 | 0.00 | 0.00 | 0.00 | 80 | 1012.5 |
| 20260831162751 | 24 | 98 | 1.6 | 4.8 | 0.00 | 0.00 | 0.00 | 80 | 1012.6 |
| 20260831162253 | 24 | 107 | 1.6 | 4.8 | 0.00 | 0.00 | 0.00 | 80 | 1012.6 |
| 20260831161752 | 24 | 108 | 1.6 | 4.8 | 0.00 | 0.00 | 0.00 | 79 | 1012.6 |
| 20260831161252 | 24 | 132 | 1.6 | 9.7 | 0.00 | 0.00 | 0.00 | 78 | 1012.8 |
| 20260831160751 | 24 | 164 | 1.6 | 9.7 | 0.00 | 0.00 | 0.00 | 79 | 1012.8 |
| 20260831160250 | 24 | 170 | 3.2 | 4.8 | 0.00 | 0.00 | 0.00 | 79 | 1012.8 |
| 20260831155753 | 24 | 158 | 3.2 | 6.4 | 0.00 | 0.00 | 0.00 | 78 | 1012.7 |
| 20260831155254 | 23 | 174 | 3.2 | 6.4 | 0.00 | 0.00 | 0.00 | 78 | 1012.7 |
| 20260831154750 | 23 | 97 | 3.2 | 11.3 | 0.00 | 0.00 | 0.00 | 79 | 1012.7 |
| 20260831154250 | 23 | 134 | 3.2 | 11.3 | 0.00 | 0.00 | 0.00 | 78 | 1012.7 |
| 20260831153751 | 23 | 111 | 3.2 | 8.0 | 0.00 | 0.00 | 0.00 | 80 | 1012.7 |
| 20260831153249 | 23 | 118 | 3.2 | 8.0 | 0.00 | 0.00 | 0.00 | 80 | 1012.7 |
| 20260831153014 | 23 | 167 | 3.2 | 8.0 | 0.00 | 0.00 | 0.00 | 82 | 1012.8 |
| 20260831152250 | 23 | 141 | 3.2 | 6.4 | 0.00 | 0.00 | 0.00 | 82 | 1012.8 |
| 20260831152012 | 23 | 120 | 1.6 | 4.8 | 0.00 | 0.00 | 0.00 | 82 | 1012.8 |
| 20260831151250 | 23 | 136 | 0.0 | 4.8 | 0.00 | 0.00 | 0.00 | 82 | 1012.9 |
| 20260831151009 | 22 | 122 | 1.6 | 8.0 | 0.00 | 0.00 | 0.00 | 82 | 1012.9 |
| 20260831150249 | 22 | 121 | 3.2 | 8.0 | 0.00 | 0.00 | 0.00 | 82 | 1012.9 |
| 20260831145959 | 22 | 122 | 3.2 | 8.0 | 0.00 | 0.00 | 0.00 | 83 | 1013.0 |
| 20260831145236 | 22 | 118 | 0.0 | 8.0 | 0.00 | 0.00 | 0.00 | 82 | 1013.0 |
| 20260831144729 | 22 | 138 | 0.0 | 0.0 | 0.00 | 0.00 | 0.00 | 83 | 1013.0 |
| 20260831144702 | 22 | 130 | 0.0 | 1.6 | 0.00 | 0.00 | 0.00 | 82 | 1013.0 |
| 20260831143718 | 22 | 123 | 1.6 | 8.0 | 0.00 | 0.00 | 0.00 | 83 | 1013.0 |
| 20260831143207 | 22 | 109 | 1.6 | 8.0 | 0.00 | 0.00 | 0.00 | 84 | 1013.0 |
| 20260831142705 | 22 | 112 | 1.6 | 4.8 | 0.00 | 0.00 | 0.00 | 84 | 1013.2 |
| 20260831142201 | 22 | 90 | 1.6 | 6.4 | 0.00 | 0.00 | 0.00 | 84 | 1013.2 |
| 20260831141654 | 22 | 103 | 3.2 | 8.0 | 0.00 | 0.00 | 0.00 | 83 | 1013.2 |
| 20260831141413 | 22 | 339 | 1.6 | 8.0 | 0.00 | 0.00 | 0.00 | 82 | 1012.5 |
| 20260831140638 | 22 | 102 | 1.6 | 4.8 | 0.00 | 0.00 | 0.00 | 82 | 1012.5 |
| 20260831140135 | 22 | 129 | 1.6 | 4.8 | 0.00 | 0.00 | 0.00 | 81 | 1012.5 |
| 20260831135629 | 22 | 173 | 1.6 | 4.8 | 0.00 | 0.00 | 0.00 | 81 | 1012.7 |
| 20260831135123 | 22 | 134 | 1.6 | 4.8 | 0.00 | 0.00 | 0.00 | 81 | 1012.7 |
| 20260831134617 | 22 | 115 | 0.0 | 3.2 | 0.00 | 0.00 | 0.00 | 81 | 1012.7 |
| 20260831134111 | 22 | 116 | 0.0 | 0.0 | 0.00 | 0.00 | 0.00 | 81 | 1012.9 |
| 20260831133607 | 22 | 123 | 0.0 | 0.0 | 0.00 | 0.00 | 0.00 | 81 | 1012.9 |
| 20260831133325 | 22 | 123 | 0.0 | 0.0 | 0.00 | 0.00 | 0.00 | 81 | 1012.9 |
| 20260831132553 | 22 | 123 | 0.0 | 3.2 | 0.00 | 0.00 | 0.00 | 81 | 1012.5 |
| 20260831132048 | 22 | 130 | 0.0 | 3.2 | 0.00 | 0.00 | 0.00 | 81 | 1012.5 |
| 20260831131537 | 22 | 130 | 0.0 | 3.2 | 0.00 | 0.00 | 0.00 | 80 | 1012.5 |
| 20260831131037 | 22 | 156 | 0.0 | 4.8 | 0.00 | 0.00 | 0.00 | 81 | 1012.2 |
| 20260831130525 | 21 | 188 | 1.6 | 4.8 | 0.00 | 0.00 | 0.00 | 81 | 1012.2 |
| 20260831130023 | 21 | 151 | 1.6 | 6.4 | 0.00 | 0.00 | 0.00 | 82 | 1012.2 |
| 20260831125518 | 21 | 181 | 1.6 | 9.7 | 0.00 | 0.00 | 0.00 | 82 | 1011.9 |
| 20260831125011 | 21 | 207 | 1.6 | 9.7 | 0.00 | 0.00 | 0.00 | 82 | 1011.9 |
| 20260831124506 | 21 | 192 | 1.6 | 8.0 | 0.00 | 0.00 | 0.00 | 82 | 1011.9 |
| 20260831123958 | 21 | 169 | 1.6 | 6.4 | 0.00 | 0.00 | 0.00 | 83 | 1011.9 |
| 20260831123452 | 21 | 157 | 1.6 | 8.0 | 0.00 | 0.00 | 0.00 | 83 | 1011.9 |
| 20260831123209 | 21 | 205 | 3.2 | 8.0 | 0.00 | 0.00 | 0.00 | 82 | 1011.9 |
| 20260831122441 | 22 | 221 | 3.2 | 8.0 | 0.00 | 0.00 | 0.00 | 81 | 1011.9 |
| 20260831121935 | 22 | 165 | 4.8 | 12.9 | 0.00 | 0.00 | 0.00 | 81 | 1011.9 |
| 20260831121429 | 22 | 214 | 4.8 | 12.9 | 0.00 | 0.00 | 0.00 | 81 | 1011.6 |
| 20260831121147 | 22 | 199 | 3.2 | 9.7 | 0.00 | 0.00 | 0.00 | 80 | 1011.6 |
| 20260831120637 | 22 | 207 | 4.8 | 9.7 | 0.00 | 0.00 | 0.00 | 80 | 1011.6 |
| 20260831115917 | 22 | 200 | 4.8 | 12.9 | 0.00 | 0.00 | 0.00 | 80 | 1011.6 |
| 20260831115416 | 22 | 206 | 6.4 | 16.1 | 0.00 | 0.00 | 0.00 | 80 | 1011.6 |
| 20260831114917 | 22 | 239 | 8.0 | 16.1 | 0.00 | 0.00 | 0.00 | 79 | 1011.6 |
| 20260831114417 | 22 | 201 | 6.4 | 14.5 | 0.00 | 0.00 | 0.00 | 79 | 1011.3 |
| 20260831113914 | 22 | 239 | 6.4 | 14.5 | 0.00 | 0.00 | 0.00 | 79 | 1011.3 |
| 20260831113638 | 22 | 190 | 4.8 | 14.5 | 0.00 | 0.00 | 0.00 | 79 | 1011.3 |
| 20260831112915 | 22 | 181 | 4.8 | 11.3 | 0.00 | 0.00 | 0.00 | 79 | 1011.1 |
| 20260831112414 | 22 | 187 | 4.8 | 11.3 | 0.00 | 0.00 | 0.00 | 80 | 1011.1 |
| 20260831111918 | 22 | 217 | 4.8 | 12.9 | 0.00 | 0.00 | 0.00 | 79 | 1011.1 |
| 20260831111418 | 22 | 179 | 4.8 | 14.5 | 0.00 | 0.00 | 0.00 | 79 | 1011.3 |
| 20260831111129 | 22 | 167 | 4.8 | 14.5 | 0.00 | 0.00 | 0.00 | 79 | 1011.3 |
| 20260831110359 | 22 | 178 | 4.8 | 12.9 | 0.00 | 0.00 | 0.00 | 79 | 1011.3 |
| 20260831105847 | 22 | 180 | 4.8 | 12.9 | 0.00 | 0.00 | 0.00 | 79 | 1011.1 |
| 20260831105558 | 22 | 223 | 4.8 | 12.9 | 0.00 | 0.00 | 0.00 | 79 | 1011.1 |
| 20260831105058 | 22 | 208 | 4.8 | 12.9 | 0.00 | 0.00 | 0.00 | 79 | 1011.1 |
| 20260831104326 | 22 | 227 | 4.8 | 11.3 | 0.00 | 0.00 | 0.00 | 79 | 1011.1 |
| 20260831104039 | 22 | 189 | 4.8 | 12.9 | 0.00 | 0.00 | 0.00 | 79 | 1011.1 |
| 20260831103313 | 22 | 212 | 4.8 | 12.9 | 0.00 | 0.00 | 0.00 | 79 | 1011.1 |
| 20260831103039 | 22 | 231 | 4.8 | 11.3 | 0.00 | 0.00 | 0.00 | 79 | 1011.1 |
| 20260831102305 | 22 | 248 | 3.2 | 9.7 | 0.00 | 0.00 | 0.00 | 79 | 1011.1 |
| 20260831101755 | 22 | 219 | 3.2 | 9.7 | 0.00 | 0.00 | 0.00 | 79 | 1011.1 |
| 20260831101249 | 22 | 237 | 3.2 | 9.7 | 0.00 | 0.00 | 0.00 | 79 | 1011.1 |
| 20260831100739 | 22 | 205 | 3.2 | 6.4 | 0.00 | 0.00 | 0.00 | 79 | 1011.1 |
| 20260831100234 | 22 | 167 | 3.2 | 9.7 | 0.00 | 0.00 | 0.00 | 79 | 1011.1 |
| 20260831095957 | 22 | 207 | 4.8 | 11.3 | 0.00 | 0.00 | 0.00 | 79 | 1011.1 |
| 20260831095225 | 22 | 232 | 4.8 | 11.3 | 0.00 | 0.00 | 0.00 | 79 | 1011.1 |
| 20260831094937 | 22 | 188 | 4.8 | 8.0 | 0.00 | 0.00 | 0.00 | 78 | 1011.1 |
| 20260831094440 | 22 | 184 | 4.8 | 8.0 | 0.00 | 0.00 | 0.00 | 78 | 1011.1 |
| 20260831093924 | 22 | 209 | 3.2 | 11.3 | 0.00 | 0.00 | 0.00 | 78 | 1011.1 |
| 20260831093201 | 22 | 227 | 3.2 | 11.3 | 0.00 | 0.00 | 0.00 | 78 | 1011.1 |
| 20260831092656 | 22 | 238 | 4.8 | 9.7 | 0.00 | 0.00 | 0.00 | 78 | 1011.3 |
| 20260831092631 | 22 | 263 | 4.8 | 9.7 | 0.00 | 0.00 | 0.00 | 77 | 1011.3 |
| 20260831091640 | 22 | 206 | 4.8 | 9.7 | 0.00 | 0.00 | 0.00 | 77 | 1011.3 |
| 20260831091400 | 23 | 173 | 4.8 | 9.7 | 0.00 | 0.00 | 0.00 | 78 | 1011.3 |
| 20260831090633 | 23 | 227 | 4.8 | 11.3 | 0.00 | 0.00 | 0.00 | 77 | 1011.3 |
| 20260831090122 | 23 | 228 | 4.8 | 12.9 | 0.00 | 0.00 | 0.00 | 77 | 1011.3 |
| 20260831085620 | 23 | 214 | 4.8 | 12.9 | 0.00 | 0.00 | 0.00 | 77 | 1011.3 |
| 20260831085112 | 23 | 230 | 3.2 | 12.9 | 0.00 | 0.00 | 0.00 | 77 | 1011.3 |
| 20260831084607 | 23 | 214 | 1.6 | 8.0 | 0.00 | 0.00 | 0.00 | 77 | 1011.3 |
| 20260831084102 | 23 | 196 | 1.6 | 6.4 | 0.00 | 0.00 | 0.00 | 78 | 1011.2 |
| 20260831083552 | 23 | 238 | 1.6 | 6.4 | 0.00 | 0.00 | 0.00 | 78 | 1011.2 |
| 20260831083050 | 23 | 171 | 1.6 | 8.0 | 0.00 | 0.00 | 0.00 | 78 | 1011.2 |
| 20260831082804 | 23 | 173 | 1.6 | 8.0 | 0.00 | 0.00 | 0.00 | 78 | 1011.2 |
| 20260831082036 | 23 | 107 | 1.6 | 6.4 | 0.00 | 0.00 | 0.00 | 77 | 1011.2 |
| 20260831081530 | 23 | 204 | 3.2 | 8.0 | 0.00 | 0.00 | 0.00 | 78 | 1011.2 |
| 20260831081020 | 23 | 171 | 3.2 | 8.0 | 0.00 | 0.00 | 0.00 | 78 | 1011.3 |
| 20260831080520 | 23 | 250 | 1.6 | 11.3 | 0.00 | 0.00 | 0.00 | 78 | 1011.3 |
| 20260831080014 | 23 | 144 | 1.6 | 11.3 | 0.00 | 0.00 | 0.00 | 78 | 1011.3 |
| 20260831075507 | 23 | 173 | 1.6 | 9.7 | 0.00 | 0.00 | 0.00 | 79 | 1011.3 |
| 20260831075001 | 23 | 176 | 1.6 | 9.7 | 0.00 | 0.00 | 0.00 | 79 | 1011.3 |
| 20260831074451 | 23 | 179 | 1.6 | 6.4 | 0.00 | 0.00 | 0.00 | 79 | 1011.3 |
| 20260831074216 | 23 | 219 | 1.6 | 4.8 | 0.00 | 0.00 | 0.00 | 80 | 1011.3 |
| 20260831073440 | 23 | 217 | 1.6 | 4.8 | 0.00 | 0.00 | 0.00 | 80 | 1011.3 |
| 20260831072939 | 23 | 180 | 1.6 | 8.0 | 0.00 | 0.00 | 0.00 | 80 | 1011.3 |
| 20260831072441 | 23 | 134 | 1.6 | 8.0 | 0.00 | 0.00 | 0.00 | 80 | 1011.4 |
| 20260831071940 | 23 | 133 | 3.2 | 8.0 | 0.00 | 0.00 | 0.00 | 79 | 1011.4 |
| 20260831071440 | 23 | 103 | 3.2 | 6.4 | 0.00 | 0.00 | 0.00 | 79 | 1011.4 |
| 20260831070939 | 23 | 97 | 1.6 | 6.4 | 0.00 | 0.00 | 0.00 | 78 | 1011.5 |
| 20260831070440 | 23 | 125 | 1.6 | 6.4 | 0.00 | 0.00 | 0.00 | 78 | 1011.5 |
| 20260831065942 | 23 | 173 | 1.6 | 6.4 | 0.00 | 0.00 | 0.00 | 78 | 1011.5 |
| 20260831065443 | 23 | 115 | 1.6 | 4.8 | 0.00 | 0.00 | 0.00 | 78 | 1011.6 |
| 20260831064937 | 23 | 140 | 1.6 | 4.8 | 0.00 | 0.00 | 0.00 | 78 | 1011.6 |
| 20260831064425 | 23 | 94 | 1.6 | 8.0 | 0.00 | 0.00 | 0.00 | 78 | 1011.5 |
| 20260831063916 | 23 | 150 | 1.6 | 8.0 | 0.00 | 0.00 | 0.00 | 78 | 1011.5 |
| 20260831063410 | 23 | 109 | 1.6 | 4.8 | 0.00 | 0.00 | 0.00 | 78 | 1011.5 |
| 20260831062902 | 23 | 189 | 1.6 | 4.8 | 0.00 | 0.00 | 0.00 | 78 | 1011.4 |
| 20260831062356 | 23 | 197 | 1.6 | 14.5 | 0.00 | 0.00 | 0.00 | 78 | 1011.4 |
| 20260831061850 | 23 | 189 | 3.2 | 14.5 | 0.00 | 0.00 | 0.00 | 78 | 1011.4 |
| 20260831061346 | 24 | 215 | 4.8 | 11.3 | 0.00 | 0.00 | 0.00 | 78 | 1011.2 |
| 20260831060840 | 24 | 211 | 4.8 | 11.3 | 0.00 | 0.00 | 0.00 | 78 | 1011.2 |
| 20260831060326 | 24 | 186 | 4.8 | 9.7 | 0.00 | 0.00 | 0.00 | 78 | 1011.2 |
| 20260831055826 | 24 | 173 | 4.8 | 11.3 | 0.00 | 0.00 | 0.00 | 78 | 1011.0 |
| 20260831055320 | 24 | 192 | 3.2 | 11.3 | 0.00 | 0.00 | 0.00 | 78 | 1011.0 |
| 20260831054814 | 24 | 180 | 4.8 | 12.9 | 0.00 | 0.00 | 0.00 | 78 | 1011.0 |
| 20260831054308 | 24 | 212 | 4.8 | 12.9 | 0.00 | 0.00 | 0.00 | 78 | 1011.4 |
| 20260831053757 | 24 | 215 | 3.2 | 12.9 | 0.00 | 0.00 | 0.00 | 78 | 1011.4 |
| 20260831053256 | 24 | 236 | 3.2 | 12.9 | 0.00 | 0.00 | 0.00 | 78 | 1011.4 |
| 20260831052753 | 24 | 210 | 3.2 | 9.7 | 0.00 | 0.00 | 0.00 | 78 | 1011.4 |
| 20260831052500 | 24 | 194 | 1.6 | 11.3 | 0.00 | 0.00 | 0.00 | 77 | 1011.4 |
| 20260831051739 | 24 | 182 | 0.0 | 11.3 | 0.00 | 0.00 | 0.00 | 78 | 1011.4 |
| 20260831051233 | 24 | 155 | 1.6 | 8.0 | 0.00 | 0.00 | 0.00 | 78 | 1011.4 |
| 20260831050727 | 24 | 194 | 1.6 | 8.0 | 0.00 | 0.00 | 0.00 | 78 | 1011.4 |
| 20260831050433 | 24 | 194 | 0.0 | 6.4 | 0.00 | 0.00 | 0.00 | 79 | 1011.4 |
| 20260831045717 | 24 | 264 | 1.6 | 9.7 | 0.00 | 0.00 | 0.00 | 79 | 1011.5 |
| 20260831045202 | 24 | 175 | 1.6 | 9.7 | 0.00 | 0.00 | 0.00 | 79 | 1011.5 |
| 20260831044705 | 24 | 184 | 0.0 | 9.7 | 0.00 | 0.00 | 0.00 | 79 | 1011.5 |
| 20260831044416 | 24 | 184 | 0.0 | 8.0 | 0.00 | 0.00 | 0.00 | 80 | 1011.9 |
| 20260831043652 | 24 | 228 | 0.0 | 3.2 | 0.00 | 0.00 | 0.00 | 81 | 1011.9 |
| 20260831043141 | 23 | 187 | 0.0 | 6.4 | 0.00 | 0.00 | 0.00 | 82 | 1011.9 |
| 20260831042636 | 23 | 187 | 1.6 | 6.4 | 0.00 | 0.00 | 0.00 | 83 | 1011.8 |
| 20260831042134 | 23 | 186 | 1.6 | 6.4 | 0.00 | 0.00 | 0.00 | 83 | 1011.8 |
| 20260831041628 | 23 | 206 | 1.6 | 4.8 | 0.00 | 0.00 | 0.00 | 84 | 1011.8 |
| 20260831041122 | 23 | 192 | 1.6 | 4.8 | 0.00 | 0.00 | 0.00 | 85 | 1012.2 |
| 20260831040843 | 23 | 135 | 1.6 | 3.2 | 0.00 | 0.00 | 0.00 | 85 | 1012.2 |
| 20260831040110 | 23 | 123 | 0.0 | 3.2 | 0.00 | 0.00 | 0.00 | 85 | 1012.2 |
| 20260831035604 | 23 | 124 | 0.0 | 3.2 | 0.00 | 0.00 | 0.00 | 85 | 1012.4 |
| 20260831035102 | 23 | 150 | 0.0 | 1.6 | 0.00 | 0.00 | 0.00 | 86 | 1012.4 |
| 20260831034601 | 23 | 186 | 0.0 | 3.2 | 0.00 | 0.00 | 0.00 | 86 | 1012.4 |
| 20260831034101 | 23 | 186 | 0.0 | 4.8 | 0.00 | 0.00 | 0.00 | 86 | 1012.5 |
| 20260831033601 | 23 | 209 | 0.0 | 4.8 | 0.00 | 0.00 | 0.00 | 86 | 1012.5 |
| 20260831033323 | 23 | 207 | 0.0 | 3.2 | 0.00 | 0.00 | 0.00 | 86 | 1012.5 |
| 20260831032559 | 23 | 207 | 0.0 | 4.8 | 0.00 | 0.00 | 0.00 | 86 | 1012.3 |
| 20260831032057 | 23 | 197 | 0.0 | 4.8 | 0.00 | 0.00 | 0.00 | 86 | 1012.3 |
| 20260831031557 | 23 | 122 | 0.0 | 4.8 | 0.00 | 0.00 | 0.00 | 87 | 1012.3 |
| 20260831031058 | 23 | 121 | 1.6 | 6.4 | 0.00 | 0.00 | 0.00 | 87 | 1012.3 |
| 20260831030812 | 23 | 124 | 1.6 | 6.4 | 0.00 | 0.00 | 0.00 | 87 | 1012.3 |
| 20260831030057 | 23 | 194 | 1.6 | 6.4 | 0.00 | 0.00 | 0.00 | 87 | 1012.3 |
| 20260831025553 | 23 | 186 | 0.0 | 6.4 | 0.00 | 0.00 | 0.00 | 87 | 1012.5 |
| 20260831025054 | 23 | 99 | 0.0 | 1.6 | 0.00 | 0.00 | 0.00 | 87 | 1012.5 |
| 20260831024551 | 23 | 172 | 0.0 | 0.0 | 0.00 | 0.00 | 0.00 | 87 | 1012.5 |
| 20260831024049 | 23 | 140 | 0.0 | 0.0 | 0.00 | 0.00 | 0.00 | 87 | 1012.9 |
| 20260831023549 | 23 | 140 | 0.0 | 0.0 | 0.00 | 0.00 | 0.00 | 86 | 1012.9 |
| 20260831023049 | 23 | 122 | 0.0 | 0.0 | 0.00 | 0.00 | 0.00 | 86 | 1012.9 |
| 20260831022550 | 23 | 93 | 0.0 | 0.0 | 0.00 | 0.00 | 0.00 | 86 | 1012.9 |
| 20260831022045 | 23 | 71 | 0.0 | 0.0 | 0.00 | 0.00 | 0.00 | 85 | 1012.9 |
| 20260831021535 | 24 | 211 | 0.0 | 0.0 | 0.00 | 0.00 | 0.00 | 85 | 1012.9 |
| 20260831021519 | 24 | 144 | 0.0 | 0.0 | 0.00 | 0.00 | 0.00 | 85 | 1012.4 |
| 20260831020731 | 24 | 115 | 0.0 | 0.0 | 0.00 | 0.00 | 0.00 | 85 | 1012.4 |
| 20260831020013 | 24 | 137 | 0.0 | 0.0 | 0.00 | 0.00 | 0.00 | 85 | 1012.4 |
| 20260831015738 | 24 | 171 | 0.0 | 0.0 | 0.00 | 0.00 | 0.00 | 85 | 1012.5 |
| 20260831015013 | 24 | 182 | 0.0 | 0.0 | 0.00 | 0.00 | 0.00 | 85 | 1012.5 |
| 20260831014512 | 24 | 182 | 0.0 | 0.0 | 0.00 | 0.00 | 0.00 | 85 | 1012.5 |
| 20260831014014 | 24 | 182 | 0.0 | 0.0 | 0.00 | 0.00 | 0.00 | 84 | 1012.3 |
| 20260831013512 | 24 | 182 | 0.0 | 0.0 | 0.00 | 0.00 | 0.00 | 84 | 1012.3 |
| 20260831013013 | 24 | 153 | 0.0 | 0.0 | 0.00 | 0.00 | 0.00 | 84 | 1012.3 |
| 20260831012513 | 24 | 114 | 0.0 | 1.6 | 0.00 | 0.00 | 0.00 | 84 | 1012.0 |
| 20260831012012 | 24 | 225 | 0.0 | 3.2 | 0.00 | 0.00 | 0.00 | 84 | 1012.0 |
| 20260831011459 | 24 | 225 | 0.0 | 3.2 | 0.00 | 0.00 | 0.00 | 84 | 1012.0 |
| 20260831010959 | 24 | 192 | 1.6 | 4.8 | 0.00 | 0.00 | 0.00 | 84 | 1011.6 |
| 20260831010452 | 24 | 114 | 1.6 | 4.8 | 0.00 | 0.00 | 0.00 | 84 | 1011.6 |
| 20260831010202 | 24 | 142 | 1.6 | 6.4 | 0.00 | 0.00 | 0.00 | 84 | 1011.8 |
| 20260831005441 | 24 | 140 | 1.6 | 6.4 | 0.00 | 0.00 | 0.00 | 85 | 1011.8 |
| 20260831004935 | 24 | 145 | 1.6 | 6.4 | 0.00 | 0.00 | 0.00 | 85 | 1011.8 |
| 20260831004429 | 24 | 133 | 1.6 | 4.8 | 0.00 | 0.00 | 0.00 | 85 | 1012.4 |
| 20260831004139 | 24 | 154 | 3.2 | 4.8 | 0.00 | 0.00 | 0.00 | 85 | 1012.4 |
| 20260831003416 | 24 | 133 | 1.6 | 4.8 | 0.00 | 0.00 | 0.00 | 85 | 1012.4 |
| 20260831003352 | 24 | 109 | 0.0 | 1.6 | 0.00 | 0.00 | 0.00 | 85 | 1012.4 |
| 20260831002404 | 24 | 109 | 0.0 | 3.2 | 0.00 | 0.00 | 0.00 | 85 | 1012.4 |
| 20260831001859 | 24 | 109 | 0.0 | 3.2 | 0.00 | 0.00 | 0.00 | 85 | 1012.4 |
| 20260831001349 | 24 | 109 | 1.6 | 6.4 | 0.00 | 0.00 | 0.00 | 85 | 1011.9 |
| 20260831000847 | 24 | 105 | 1.6 | 6.4 | 0.00 | 0.00 | 0.00 | 85 | 1011.9 |
| 20260831000342 | 24 | 108 | 3.2 | 8.0 | 0.00 | 0.00 | 0.00 | 85 | 1011.9 |
| 20260830235834 | 24 | 147 | 3.2 | 9.7 | 0.00 | 0.00 | 0.00 | 85 | 1012.2 |
| 20260830235328 | 24 | 163 | 1.6 | 9.7 | 0.00 | 0.00 | 0.00 | 85 | 1012.2 |
| 20260830234822 | 24 | 151 | 1.6 | 6.4 | 0.00 | 0.00 | 0.00 | 85 | 1012.2 |
| 20260830234317 | 24 | 144 | 1.6 | 4.8 | 0.00 | 0.00 | 0.00 | 85 | 1012.5 |
| 20260830233806 | 25 | 123 | 1.6 | 3.2 | 0.00 | 0.00 | 0.00 | 84 | 1012.5 |
| 20260830233304 | 25 | 123 | 0.0 | 3.2 | 0.00 | 0.00 | 0.00 | 84 | 1012.5 |
| 20260830233026 | 25 | 122 | 0.0 | 3.2 | 0.00 | 0.00 | 0.00 | 83 | 1012.8 |
| 20260830232251 | 25 | 121 | 0.0 | 0.0 | 0.00 | 0.00 | 0.00 | 83 | 1012.8 |
| 20260830231747 | 25 | 121 | 0.0 | 0.0 | 0.00 | 0.00 | 0.00 | 82 | 1012.8 |
| 20260830231236 | 25 | 121 | 0.0 | 0.0 | 0.00 | 0.00 | 0.00 | 82 | 1012.9 |
| 20260830230734 | 25 | 121 | 0.0 | 1.6 | 0.00 | 0.00 | 0.00 | 82 | 1012.9 |
| 20260830230230 | 25 | 121 | 0.0 | 1.6 | 0.00 | 0.00 | 0.00 | 81 | 1012.9 |
| 20260830225724 | 25 | 121 | 0.0 | 0.0 | 0.00 | 0.00 | 0.00 | 81 | 1012.9 |
| 20260830225441 | 25 | 121 | 0.0 | 0.0 | 0.00 | 0.00 | 0.00 | 80 | 1012.9 |
| 20260830224711 | 25 | 121 | 0.0 | 0.0 | 0.00 | 0.00 | 0.00 | 80 | 1012.9 |
| 20260830224205 | 25 | 121 | 0.0 | 0.0 | 0.00 | 0.00 | 0.00 | 80 | 1012.5 |
| 20260830223654 | 25 | 121 | 0.0 | 3.2 | 0.00 | 0.00 | 0.00 | 80 | 1012.5 |
| 20260830223152 | 25 | 121 | 1.6 | 4.8 | 0.00 | 0.00 | 0.00 | 80 | 1012.5 |
| 20260830222647 | 25 | 121 | 1.6 | 4.8 | 0.00 | 0.00 | 0.00 | 79 | 1012.4 |
| 20260830222140 | 25 | 98 | 1.6 | 4.8 | 0.00 | 0.00 | 0.00 | 79 | 1012.4 |
| 20260830221633 | 26 | 120 | 0.0 | 4.8 | 0.00 | 0.00 | 0.00 | 80 | 1012.4 |
| 20260830221128 | 26 | 102 | 0.0 | 0.0 | 0.00 | 0.00 | 0.00 | 79 | 1012.5 |
| 20260830220618 | 26 | 111 | 0.0 | 1.6 | 0.00 | 0.00 | 0.00 | 80 | 1012.5 |
| 20260830220117 | 26 | 110 | 0.0 | 1.6 | 0.00 | 0.00 | 0.00 | 79 | 1012.5 |
| 20260830220101 | 26 | 92 | 0.0 | 0.0 | 0.00 | 0.00 | 0.00 | 80 | 1012.9 |
| 20260830215118 | 26 | 92 | 0.0 | 0.0 | 0.00 | 0.00 | 0.00 | 80 | 1012.9 |
| 20260830214618 | 26 | 71 | 0.0 | 0.0 | 0.00 | 0.00 | 0.00 | 79 | 1012.9 |
| 20260830214120 | 26 | 71 | 0.0 | 0.0 | 0.00 | 0.00 | 0.00 | 79 | 1012.9 |
| 20260830213617 | 26 | 57 | 0.0 | 0.0 | 0.00 | 0.00 | 0.00 | 78 | 1012.9 |
| 20260830213606 | 26 | 100 | 0.0 | 0.0 | 0.00 | 0.00 | 0.00 | 78 | 1012.9 |
| 20260830212619 | 26 | 246 | 0.0 | 1.6 | 0.00 | 0.00 | 0.00 | 76 | 1013.0 |
| 20260830212113 | 26 | 246 | 0.0 | 4.8 | 0.00 | 0.00 | 0.00 | 76 | 1013.0 |
| 20260830211559 | 26 | 246 | 1.6 | 4.8 | 0.00 | 0.00 | 0.00 | 75 | 1013.0 |
| 20260830211049 | 26 | 253 | 1.6 | 6.4 | 0.00 | 0.00 | 0.00 | 76 | 1012.9 |
| 20260830210537 | 26 | 217 | 1.6 | 6.4 | 0.00 | 0.00 | 0.00 | 76 | 1012.9 |
| 20260830210035 | 26 | 243 | 1.6 | 6.4 | 0.00 | 0.00 | 0.00 | 76 | 1012.9 |
| 20260830205748 | 26 | 239 | 0.0 | 6.4 | 0.00 | 0.00 | 0.00 | 76 | 1012.9 |
| 20260830205513 | 25 | 241 | 0.0 | 3.2 | 0.00 | 0.00 | 0.00 | 77 | 1012.9 |
| 20260830204513 | 25 | 242 | 1.6 | 4.8 | 0.00 | 0.00 | 0.00 | 78 | 1012.9 |
| 20260830204011 | 25 | 242 | 3.2 | 6.4 | 0.00 | 0.00 | 0.00 | 77 | 1013.0 |
| 20260830203505 | 25 | 286 | 3.2 | 6.4 | 0.00 | 0.00 | 0.00 | 77 | 1013.0 |
| 20260830202959 | 25 | 288 | 3.2 | 9.7 | 0.00 | 0.00 | 0.00 | 78 | 1013.0 |
| 20260830202454 | 25 | 215 | 4.8 | 11.3 | 0.00 | 0.00 | 0.00 | 78 | 1012.8 |
| 20260830201943 | 25 | 225 | 3.2 | 11.3 | 0.00 | 0.00 | 0.00 | 78 | 1012.8 |
| 20260830201656 | 25 | 218 | 3.2 | 8.0 | 0.00 | 0.00 | 0.00 | 79 | 1012.9 |
| 20260830200936 | 25 | 202 | 3.2 | 9.7 | 0.00 | 0.00 | 0.00 | 79 | 1012.9 |
| 20260830200430 | 25 | 180 | 3.2 | 9.7 | 0.00 | 0.00 | 0.00 | 79 | 1012.9 |
| 20260830195924 | 25 | 215 | 1.6 | 9.7 | 0.00 | 0.00 | 0.00 | 79 | 1012.9 |
| 20260830195853 | 25 | 238 | 3.2 | 9.7 | 0.00 | 0.00 | 0.00 | 78 | 1012.9 |
| 20260830194911 | 25 | 228 | 4.8 | 17.7 | 0.00 | 0.00 | 0.00 | 78 | 1012.9 |
| 20260830194406 | 25 | 239 | 6.4 | 17.7 | 0.00 | 0.00 | 0.00 | 76 | 1012.5 |
| 20260830193900 | 25 | 222 | 6.4 | 16.1 | 0.00 | 0.00 | 0.00 | 76 | 1012.5 |
| 20260830193353 | 25 | 245 | 6.4 | 19.3 | 0.00 | 0.00 | 0.00 | 75 | 1012.5 |
| 20260830192843 | 26 | 238 | 9.7 | 24.1 | 0.00 | 0.00 | 0.00 | 75 | 1012.5 |
| 20260830192337 | 26 | 211 | 9.7 | 24.1 | 0.00 | 0.00 | 0.00 | 74 | 1012.5 |
| 20260830192051 | 26 | 223 | 8.0 | 22.5 | 0.00 | 0.00 | 0.00 | 75 | 1012.5 |
| 20260830191320 | 26 | 227 | 9.7 | 20.9 | 0.00 | 0.00 | 0.00 | 75 | 1012.5 |
| 20260830190819 | 26 | 213 | 9.7 | 20.9 | 0.00 | 0.00 | 0.00 | 75 | 1012.5 |
| 20260830190313 | 26 | 233 | 8.0 | 20.9 | 0.00 | 0.00 | 0.00 | 75 | 1012.5 |
| 20260830185807 | 26 | 211 | 9.7 | 19.3 | 0.00 | 0.00 | 0.00 | 75 | 1012.3 |
| 20260830185526 | 26 | 200 | 9.7 | 19.3 | 0.00 | 0.00 | 0.00 | 74 | 1012.3 |
| 20260830184752 | 26 | 210 | 11.3 | 29.0 | 0.00 | 0.00 | 0.00 | 73 | 1012.3 |
| 20260830184250 | 26 | 219 | 11.3 | 29.0 | 0.00 | 0.00 | 0.00 | 73 | 1011.9 |
| 20260830183744 | 26 | 223 | 9.7 | 29.0 | 0.00 | 0.00 | 0.00 | 72 | 1011.9 |
| 20260830183236 | 26 | 171 | 11.3 | 29.0 | 0.00 | 0.00 | 0.00 | 73 | 1011.9 |
| 20260830183217 | 26 | 207 | 11.3 | 29.0 | 0.00 | 0.00 | 0.00 | 74 | 1012.0 |
| 20260830182225 | 26 | 207 | 9.7 | 22.5 | 0.00 | 0.00 | 0.00 | 74 | 1012.0 |